NORTHEAST SUFFOLK  -  Winter Weather Advisory Winter Weather Advisory        NORTHERN NASSAU  -  Winter Weather Advisory Winter Weather Advisory        NORTHWEST SUFFOLK  -  Winter Weather Advisory Winter Weather Advisory        SOUTHEAST SUFFOLK  -  Winter Weather Advisory Winter Weather Advisory        SOUTHERN NASSAU  -  Winter Weather Advisory Winter Weather Advisory        SOUTHWEST SUFFOLK  -  Winter Weather Advisory Winter Weather Advisory      

Active alerts

Northern Nassau
  Details for Northern Nassau Winter Weather Advisory
Southern Nassau
  Details for Southern Nassau Winter Weather Advisory
Northwest Suffolk
  Details for Northwest Suffolk Winter Weather Advisory
Southwest Suffolk
  Details for Southwest Suffolk Winter Weather Advisory
Northeast Suffolk
  Details for Northeast Suffolk Winter Weather Advisory
Southeast Suffolk
  Details for Southeast Suffolk Winter Weather Advisory


WXM80 ListenWXM80 Stop

You find our weather info also at:

UK Metoffice

WeatherCloud

Weather Underground

Northeastern Weather Network

AWEKAS

Citizen Weather Observer Program (CWOP)

HAMweather, WeatherForYou, PWS Weather


Weather Underground History page Text

Daily Summary for July 25, 2017 Units:  Metric    English   Both
« Previous Day
Next Day »
Daily Weekly Monthly Yearly Custom
  High: Low: Average:
Temperature: 22.1 °C 16.9 °C 18.7 °C
Dew Point: 17.6 °C 15.4 °C 16.1 °C
Humidity: 91 % 73 % 85 %
Wind Speed: 7.1 km/h 0 km/h 1 km/h
Wind Gust: 13 km/h - -
Wind:- - ENE
Pressure: 1021.9 hPa 1013.1 hPa -
Precipitation: 1.78 mm    
Historical Graphs
 
 
Tabular Data for July 25, 2017
Time Temperature Dew Point Pressure Wind Wind Speed Wind Gust Humidity Rainfall Rate (Hourly)
00:00 17.4 °C 15.4 °C 1013.1 hPa ENE 5.8 km/h 7.4 km/h 88 % 0 mm
00:05 17.4 °C 15.4 °C 1013.1 hPa East 3.7 km/h 13 km/h 88 % 0 mm
00:10 17.4 °C 15.6 °C 1013.1 hPa ENE 1.9 km/h 5.6 km/h 89 % 0 mm
00:15 17.4 °C 15.4 °C 1013.1 hPa ENE 3.9 km/h 11.1 km/h 88 % 0.25 mm
00:20 17.4 °C 15.6 °C 1013.1 hPa ENE 5.3 km/h 11.1 km/h 89 % 0.25 mm
00:25 17.4 °C 15.4 °C 1013.1 hPa ENE 2.9 km/h 5.6 km/h 88 % 0.25 mm
00:30 17.4 °C 15.6 °C 1013.1 hPa ENE 1.6 km/h 3.7 km/h 89 % 0.25 mm
00:35 17.4 °C 15.6 °C 1013.1 hPa ENE 0.8 km/h 5.6 km/h 89 % 0.25 mm
00:40 17.4 °C 15.6 °C 1013.1 hPa ENE 1 km/h 3.7 km/h 89 % 0.25 mm
00:45 17.4 °C 15.6 °C 1013.1 hPa ENE 1.9 km/h 3.7 km/h 89 % 0.25 mm
00:50 17.4 °C 15.6 °C 1013.1 hPa ENE 2.1 km/h 5.6 km/h 89 % 0.25 mm
00:55 17.4 °C 15.6 °C 1013.1 hPa NE 2.1 km/h 5.6 km/h 89 % 0.25 mm
01:00 17.4 °C 15.6 °C 1013.4 hPa ENE 1.3 km/h 3.7 km/h 89 % 0.25 mm
01:05 17.4 °C 15.8 °C 1013.4 hPa ENE 0.8 km/h 3.7 km/h 90 % 0.25 mm
01:10 17.4 °C 15.8 °C 1013.4 hPa ENE 1.1 km/h 3.7 km/h 90 % 0.25 mm
01:15 17.4 °C 15.6 °C 1013.4 hPa ENE 1 km/h 5.6 km/h 89 % 0 mm
01:21 17.4 °C 15.6 °C 1013.4 hPa ENE 1.6 km/h 3.2 km/h 89 % 0 mm
01:26 17.4 °C 15.6 °C 1013.1 hPa ENE 4.8 km/h 8 km/h 89 % 0 mm
01:31 17.4 °C 15.6 °C 1013.4 hPa ENE 1.6 km/h 4.8 km/h 89 % 0 mm
01:36 17.4 °C 15.6 °C 1013.8 hPa ENE 1.6 km/h 3.2 km/h 89 % 0 mm
01:41 17.4 °C 15.6 °C 1013.8 hPa East 1.6 km/h 4.8 km/h 89 % 0.25 mm
01:46 17.3 °C 15.5 °C 1013.8 hPa ENE 0.8 km/h 3.7 km/h 89 % 0.25 mm
01:51 17.3 °C 15.7 °C 1013.8 hPa ENE 1.1 km/h 3.7 km/h 90 % 0.25 mm
01:56 17.3 °C 15.7 °C 1013.8 hPa ENE 0.2 km/h 1.9 km/h 90 % 0.25 mm
02:01 17.3 °C 15.7 °C 1014.1 hPa ENE 0.6 km/h 1.9 km/h 90 % 0.25 mm
02:06 17.3 °C 15.7 °C 1014.1 hPa ENE 0.5 km/h 1.9 km/h 90 % 0.25 mm
02:11 17.3 °C 15.7 °C 1014.1 hPa ESE 1 km/h 3.2 km/h 90 % 0.25 mm
02:16 17.3 °C 15.4 °C 1013.8 hPa East 1.1 km/h 3.7 km/h 89 % 0.25 mm
02:21 17.3 °C 15.6 °C 1013.8 hPa East 0.3 km/h 3.7 km/h 90 % 0.25 mm
02:26 17.2 °C 15.6 °C 1013.8 hPa East 0.6 km/h 1.9 km/h 90 % 0.25 mm
02:31 17.2 °C 15.5 °C 1013.4 hPa East 2.6 km/h 5.6 km/h 90 % 0.25 mm
02:36 17.1 °C 15.6 °C 1013.8 hPa East 0.5 km/h 1.9 km/h 91 % 0.25 mm
02:41 17.1 °C 15.6 °C 1013.8 hPa East 0.5 km/h 1.9 km/h 91 % 0 mm
02:46 17.1 °C 15.6 °C 1013.8 hPa East 0.6 km/h 3.7 km/h 91 % 0 mm
02:51 17 °C 15.5 °C 1013.8 hPa Calm     91 % 0 mm
02:56 17 °C 15.5 °C 1013.8 hPa East 0.6 km/h 1.9 km/h 91 % 0 mm
03:01 16.9 °C 15.4 °C 1013.8 hPa East 0.2 km/h 1.9 km/h 91 % 0 mm
03:06 16.9 °C 15.4 °C 1013.8 hPa East 0.3 km/h 1.9 km/h 91 % 0 mm
03:11 16.9 °C 15.4 °C 1013.8 hPa Calm   1.9 km/h 91 % 0 mm
03:16 16.9 °C 15.4 °C 1013.8 hPa Calm   1.9 km/h 91 % 0 mm
03:21 16.9 °C 15.4 °C 1014.1 hPa Calm     91 % 0 mm
03:26 16.9 °C 15.4 °C 1013.8 hPa East 0.3 km/h 1.9 km/h 91 % 0.25 mm
03:31 16.9 °C 15.4 °C 1013.8 hPa Calm     91 % 0.25 mm
03:36 16.9 °C 15.4 °C 1013.4 hPa East 0.2 km/h 1.9 km/h 91 % 0.25 mm
03:42 16.9 °C 15.4 °C 1013.4 hPa East 0.2 km/h 1.9 km/h 91 % 0.25 mm
03:52 16.9 °C 15.4 °C 1013.8 hPa ENE 0.3 km/h 1.9 km/h 91 % 0.25 mm
03:57 16.9 °C 15.4 °C 1013.8 hPa East 0.5 km/h 3.7 km/h 91 % 0.25 mm
04:02 16.9 °C 15.4 °C 1013.8 hPa Calm     91 % 0.25 mm
04:07 16.9 °C 15.4 °C 1013.8 hPa East 0.2 km/h 1.9 km/h 91 % 0.25 mm
04:12 16.9 °C 15.4 °C 1013.8 hPa Calm     91 % 0.25 mm
04:17 16.9 °C 15.4 °C 1013.8 hPa Calm   1.9 km/h 91 % 0.25 mm
04:22 16.9 °C 15.4 °C 1013.8 hPa East 0.6 km/h 1.9 km/h 91 % 0.25 mm
04:27 16.9 °C 15.4 °C 1013.8 hPa East 0.3 km/h 3.2 km/h 91 % 0 mm
04:32 16.9 °C 15.4 °C 1013.8 hPa Calm   1.9 km/h 91 % 0 mm
04:37 16.9 °C 15.4 °C 1013.8 hPa East 0.3 km/h 1.9 km/h 91 % 0 mm
04:42 16.9 °C 15.4 °C 1013.8 hPa Calm     91 % 0 mm
04:47 16.9 °C 15.4 °C 1013.8 hPa Calm     91 % 0 mm
04:52 16.9 °C 15.4 °C 1014.1 hPa East 0.2 km/h 1.9 km/h 91 % 0 mm
04:57 16.9 °C 15.4 °C 1014.1 hPa Calm   1.9 km/h 91 % 0 mm
05:02 16.9 °C 15.4 °C 1014.1 hPa Calm   1.9 km/h 91 % 0 mm
05:07 16.9 °C 15.4 °C 1014.1 hPa Calm   1.9 km/h 91 % 0 mm
05:12 16.9 °C 15.4 °C 1014.1 hPa Calm   1.9 km/h 91 % 0 mm
05:17 16.9 °C 15.4 °C 1014.4 hPa Calm   1.6 km/h 91 % 0 mm
05:22 16.9 °C 15.4 °C 1014.4 hPa Calm     91 % 0 mm
05:28 16.9 °C 15.4 °C 1014.4 hPa Calm     91 % 0.25 mm
05:33 16.9 °C 15.4 °C 1014.4 hPa Calm     91 % 0.25 mm
05:38 16.9 °C 15.4 °C 1014.4 hPa Calm   1.9 km/h 91 % 0.25 mm
05:43 16.9 °C 15.4 °C 1014.8 hPa Calm     91 % 0.25 mm
05:48 16.9 °C 15.4 °C 1014.8 hPa Calm     91 % 0.25 mm
05:53 17 °C 15.5 °C 1014.8 hPa East 0.2 km/h 1.9 km/h 91 % 0.25 mm
05:58 17 °C 15.5 °C 1014.4 hPa Calm     91 % 0.25 mm
06:03 17 °C 15.5 °C 1014.8 hPa Calm     91 % 0.25 mm
06:08 17.1 °C 15.6 °C 1014.8 hPa Calm   1.9 km/h 91 % 0.25 mm
06:13 17.1 °C 15.6 °C 1014.8 hPa Calm     91 % 0.25 mm
06:18 17.1 °C 15.6 °C 1014.8 hPa East 0.2 km/h 1.9 km/h 91 % 0.25 mm
06:23 17.1 °C 15.6 °C 1014.8 hPa Calm     91 % 0.25 mm
06:28 17.1 °C 15.6 °C 1014.8 hPa Calm     91 % 0 mm
06:33 17.2 °C 15.7 °C 1014.8 hPa Calm     91 % 0 mm
06:38 17.2 °C 15.7 °C 1014.8 hPa Calm     91 % 0 mm
06:43 17.2 °C 15.7 °C 1014.8 hPa East 0.3 km/h 1.9 km/h 91 % 0 mm
06:48 17.3 °C 15.8 °C 1014.8 hPa East 0.3 km/h 1.9 km/h 91 % 0 mm
06:53 17.3 °C 15.8 °C 1014.8 hPa East 1 km/h 1.9 km/h 91 % 0 mm
06:58 17.3 °C 15.8 °C 1015.1 hPa East 0.5 km/h 1.9 km/h 91 % 0 mm
07:03 17.4 °C 15.7 °C 1015.1 hPa NE 0.3 km/h 3.7 km/h 90 % 0 mm
07:08 17.4 °C 15.7 °C 1015.5 hPa ENE 0.2 km/h 5.6 km/h 90 % 0 mm
07:13 17.4 °C 15.8 °C 1015.5 hPa Calm   1.9 km/h 90 % 0 mm
07:18 17.4 °C 15.8 °C 1015.5 hPa Calm     90 % 0 mm
07:23 17.4 °C 15.8 °C 1015.5 hPa Calm     90 % 0 mm
07:28 17.4 °C 15.8 °C 1015.8 hPa ENE 0.5 km/h 3.7 km/h 90 % 0 mm
07:33 17.4 °C 15.8 °C 1015.8 hPa NE 0.5 km/h 1.9 km/h 90 % 0 mm
07:38 17.4 °C 15.8 °C 1015.8 hPa ENE 2.9 km/h 3.7 km/h 90 % 0 mm
07:43 17.5 °C 15.8 °C 1015.8 hPa NE 1.1 km/h 3.7 km/h 90 % 0 mm
07:48 17.4 °C 15.8 °C 1015.8 hPa East 2.4 km/h 5.6 km/h 90 % 0.25 mm
07:53 17.4 °C 15.8 °C 1015.8 hPa NE 6.9 km/h 7.4 km/h 90 % 0.25 mm
07:59 17.4 °C 15.8 °C 1015.8 hPa NNE 2.4 km/h 7.4 km/h 90 % 0.25 mm
08:04 17.4 °C 15.8 °C 1015.8 hPa NE 6.3 km/h 9.3 km/h 90 % 0.25 mm
08:09 17.3 °C 15.7 °C 1015.8 hPa NE 5.8 km/h 11.1 km/h 90 % 0.25 mm
08:14 17.3 °C 15.7 °C 1016.1 hPa ENE 6.8 km/h 13 km/h 90 % 0.25 mm
08:19 17.3 °C 15.7 °C 1015.8 hPa NE 4.5 km/h 6.4 km/h 90 % 0.25 mm
08:24 17.3 °C 15.6 °C 1015.8 hPa East 1 km/h 3.7 km/h 90 % 0.25 mm
08:29 17.3 °C 15.7 °C 1016.1 hPa ENE 3.2 km/h 5.6 km/h 90 % 0.25 mm
08:34 17.3 °C 15.7 °C 1016.1 hPa ENE 0.2 km/h 1.9 km/h 90 % 0.25 mm
08:39 17.4 °C 15.9 °C 1016.1 hPa ENE 0.5 km/h 1.9 km/h 91 % 0.25 mm
08:44 17.4 °C 15.8 °C 1016.1 hPa NE 3.1 km/h 5.6 km/h 90 % 0 mm
08:49 17.4 °C 15.8 °C 1016.1 hPa NE 2.3 km/h 9.3 km/h 90 % 0 mm
08:54 17.4 °C 15.8 °C 1016.5 hPa ENE 2.4 km/h 8 km/h 90 % 0 mm
08:59 17.4 °C 15.8 °C 1016.5 hPa ENE 1 km/h 1.9 km/h 90 % 0 mm
09:04 17.4 °C 15.6 °C 1016.5 hPa ENE 3.1 km/h 5.6 km/h 89 % 0 mm
09:09 17.5 °C 15.7 °C 1016.5 hPa ENE 3.5 km/h 5.6 km/h 89 % 0 mm
09:14 17.5 °C 15.7 °C 1016.5 hPa ENE 3.5 km/h 7.4 km/h 89 % 0 mm
09:19 17.5 °C 15.7 °C 1016.5 hPa NE 7.1 km/h 11.3 km/h 89 % 0 mm
09:25 17.4 °C 15.4 °C 1016.5 hPa NE 4.5 km/h 5.6 km/h 88 % 0 mm
09:29 17.4 °C 15.6 °C 1016.5 hPa ENE 1.6 km/h 3.7 km/h 89 % 0 mm
09:35 17.5 °C 15.7 °C 1016.5 hPa ENE 1.1 km/h 4.8 km/h 89 % 0 mm
09:40 17.5 °C 15.7 °C 1016.5 hPa NE 1.1 km/h 5.6 km/h 89 % 0 mm
09:45 17.5 °C 15.7 °C 1016.8 hPa ENE 3.7 km/h 5.6 km/h 89 % 0 mm
09:50 17.5 °C 15.7 °C 1016.8 hPa ENE 1.6 km/h 5.6 km/h 89 % 0 mm
09:55 17.6 °C 15.7 °C 1016.8 hPa ENE 0.6 km/h 3.2 km/h 89 % 0 mm
10:00 17.6 °C 15.7 °C 1016.8 hPa ENE 2.4 km/h 5.6 km/h 89 % 0 mm
10:05 17.5 °C 15.7 °C 1017.2 hPa NE 4.2 km/h 5.6 km/h 89 % 0 mm
10:10 17.5 °C 15.5 °C 1017.2 hPa ENE 1.6 km/h 3.7 km/h 88 % 0 mm
10:15 17.5 °C 15.5 °C 1017.2 hPa ENE 0.5 km/h 1.9 km/h 88 % 0 mm
10:20 17.5 °C 15.7 °C 1016.8 hPa ENE 0.2 km/h   89 % 0 mm
10:25 17.6 °C 15.7 °C 1017.2 hPa Calm   1.9 km/h 89 % 0.25 mm
10:30 17.6 °C 15.8 °C 1017.2 hPa ENE 0.5 km/h 3.7 km/h 89 % 0.25 mm
10:32 17.6 °C 15.8 °C 1017.2 hPa ENE 1 km/h 3.7 km/h 89 % 0.25 mm
10:36 17.7 °C 15.8 °C 1017.2 hPa ENE 0.8 km/h 1.9 km/h 89 % 0.25 mm
10:42 17.7 °C 15.9 °C 1017.2 hPa NE 0.5 km/h 8 km/h 89 % 0.25 mm
10:46 17.8 °C 15.9 °C 1017.2 hPa NE 3.2 km/h 4.8 km/h 89 % 0.25 mm
10:52 17.8 °C 15.8 °C 1017.2 hPa ENE 0.6 km/h 1.9 km/h 88 % 0.25 mm
10:57 17.8 °C 15.8 °C 1017.5 hPa ENE 0.5 km/h 1.9 km/h 88 % 0.25 mm
11:02 17.8 °C 15.8 °C 1017.5 hPa Calm   1.9 km/h 88 % 0.25 mm
11:07 17.9 °C 15.9 °C 1017.5 hPa ENE 0.3 km/h 1.9 km/h 88 % 0.25 mm
11:12 17.9 °C 15.9 °C 1017.5 hPa ENE 0.3 km/h 1.9 km/h 88 % 0.25 mm
11:17 17.9 °C 15.7 °C 1017.8 hPa ENE 6.8 km/h 13 km/h 87 % 0.25 mm
11:22 17.9 °C 15.9 °C 1017.8 hPa NE 1.6 km/h 3.7 km/h 88 % 0.25 mm
11:27 18 °C 16 °C 1017.8 hPa NE 0.8 km/h 1.9 km/h 88 % 0 mm
11:32 18.1 °C 16.1 °C 1017.8 hPa NE 0.3 km/h 1.9 km/h 88 % 0 mm
11:37 18.1 °C 16.1 °C 1017.8 hPa NE 0.2 km/h 1.9 km/h 88 % 0 mm
11:42 18.2 °C 16.2 °C 1017.8 hPa NE 0.8 km/h 3.2 km/h 88 % 0 mm
11:47 18.3 °C 15.9 °C 1017.8 hPa NE 0.6 km/h 3.7 km/h 86 % 0 mm
11:52 18.4 °C 16.2 °C 1018.2 hPa NE 0.2 km/h 3.7 km/h 87 % 0 mm
11:57 18.5 °C 16.1 °C 1018.2 hPa NE 0.2 km/h 1.9 km/h 86 % 0 mm
12:02 18.6 °C 16.2 °C 1018.2 hPa NE 0.2 km/h 1.9 km/h 86 % 0 mm
12:07 18.6 °C 16.2 °C 1018.2 hPa NE 1.1 km/h 3.7 km/h 86 % 0 mm
12:10 18.7 °C 16.3 °C 1018.2 hPa ENE 0.5 km/h 1.9 km/h 86 % 0 mm
12:15 18.7 °C 16.2 °C 1018.2 hPa ENE 0.3 km/h 1.9 km/h 85 % 0 mm
12:20 18.8 °C 16.4 °C 1018.2 hPa Calm     86 % 0 mm
12:25 18.8 °C 16.1 °C 1018.2 hPa ENE 3.4 km/h 5.6 km/h 84 % 0 mm
12:30 18.9 °C 16.3 °C 1018.2 hPa ENE 0.6 km/h 3.2 km/h 85 % 0 mm
12:35 19 °C 16.2 °C 1018.2 hPa NE 0.6 km/h 5.6 km/h 84 % 0 mm
12:40 19.1 °C 16.3 °C 1018.2 hPa NE 3.9 km/h 5.6 km/h 84 % 0 mm
12:45 19.2 °C 16.3 °C 1018.2 hPa NW 0.8 km/h 1.9 km/h 83 % 0 mm
12:50 19.3 °C 16.4 °C 1018.2 hPa NE 0.3 km/h 5.6 km/h 83 % 0 mm
12:55 19.4 °C 16.5 °C 1018.2 hPa NE 3.9 km/h 5.6 km/h 83 % 0 mm
13:00 19.6 °C 16.4 °C 1018.2 hPa NE 0.2 km/h 5.6 km/h 82 % 0 mm
13:05 19.7 °C 16.3 °C 1018.2 hPa NE 3.1 km/h 7.4 km/h 81 % 0 mm
13:10 19.8 °C 16.6 °C 1018.2 hPa ENE 0.6 km/h 3.7 km/h 82 % 0 mm
13:12 19.8 °C 16.5 °C 1018.2 hPa ENE 0.3 km/h 5.6 km/h 81 % 0 mm
13:17 20.1 °C 16.9 °C 1018.2 hPa NE 0.8 km/h 5.6 km/h 82 % 0 mm
13:22 20.4 °C 17 °C 1018.2 hPa ENE 1 km/h 3.2 km/h 81 % 0 mm
13:27 20.6 °C 17 °C 1018.2 hPa NE 1.1 km/h 5.6 km/h 80 % 0 mm
13:32 20.6 °C 16.8 °C 1018.2 hPa NE 1.6 km/h 1.9 km/h 79 % 0 mm
13:37 20.7 °C 16.7 °C 1018.2 hPa NE 2.4 km/h 5.6 km/h 78 % 0 mm
13:42 20.7 °C 16.5 °C 1018.2 hPa NE 1.4 km/h 3.7 km/h 77 % 0 mm
13:47 20.7 °C 16.6 °C 1018.5 hPa ENE 2.4 km/h 4.8 km/h 77 % 0 mm
13:52 20.7 °C 16.7 °C 1018.5 hPa ENE 0.2 km/h 3.7 km/h 78 % 0 mm
13:57 20.9 °C 17.1 °C 1018.5 hPa NNE 0.2 km/h 1.9 km/h 79 % 0 mm
14:02 21.2 °C 17 °C 1018.5 hPa NE 3.1 km/h 5.6 km/h 77 % 0 mm
14:04 21.2 °C 16.8 °C 1018.5 hPa ENE 1.6 km/h 5.6 km/h 76 % 0 mm
14:09 21.3 °C 16.7 °C 1018.5 hPa NE 1.4 km/h 5.6 km/h 75 % 0 mm
14:14 21.4 °C 17.1 °C 1018.5 hPa NE 1.3 km/h 5.6 km/h 76 % 0 mm
14:19 21.6 °C 17.4 °C 1018.5 hPa NE 0.3 km/h 5.6 km/h 77 % 0 mm
14:24 21.7 °C 16.8 °C 1018.5 hPa NE 0.8 km/h 5.6 km/h 74 % 0 mm
14:29 21.7 °C 17.4 °C 1018.5 hPa Calm   1.9 km/h 77 % 0 mm
14:34 21.8 °C 17.6 °C 1018.5 hPa NE 0.2 km/h 1.9 km/h 77 % 0.25 mm
14:39 21.9 °C 17.5 °C 1018.5 hPa NE 0.3 km/h 1.9 km/h 76 % 0.25 mm
14:44 22.1 °C 17.4 °C 1018.5 hPa NE 0.8 km/h 5.6 km/h 75 % 0.25 mm
14:49 22 °C 16.9 °C 1018.8 hPa ENE 0.8 km/h 3.2 km/h 73 % 0.25 mm
14:54 21.9 °C 16.8 °C 1018.8 hPa NE 3.1 km/h 5.6 km/h 73 % 0.25 mm
14:59 21.8 °C 17.4 °C 1018.8 hPa ENE 1.1 km/h 4.8 km/h 76 % 0.25 mm
15:04 21.6 °C 16.8 °C 1018.8 hPa NNE 1.4 km/h 5.6 km/h 74 % 0.25 mm
15:09 21.4 °C 16.6 °C 1018.8 hPa NNE 0.3 km/h 3.7 km/h 74 % 0.25 mm
15:14 21.4 °C 17.2 °C 1018.8 hPa Calm     77 % 0.25 mm
15:19 21.3 °C 17.1 °C 1018.8 hPa NE 1.8 km/h 4.8 km/h 77 % 0.25 mm
15:24 21.3 °C 17.3 °C 1018.8 hPa Calm     78 % 0.25 mm
15:29 21.3 °C 16.7 °C 1018.8 hPa Calm   1.9 km/h 75 % 0.25 mm
15:34 21.3 °C 17.1 °C 1018.8 hPa Calm     77 % 0 mm
15:39 21.3 °C 16.9 °C 1018.8 hPa ENE 1.9 km/h 5.6 km/h 76 % 0 mm
15:44 21.3 °C 16.7 °C 1018.8 hPa NE 1 km/h 1.9 km/h 75 % 0 mm
15:49 21.3 °C 16.7 °C 1018.8 hPa Calm   3.7 km/h 75 % 0 mm
15:54 21.3 °C 16.9 °C 1018.8 hPa Calm     76 % 0 mm
15:59 21.3 °C 17.1 °C 1018.8 hPa Calm   1.9 km/h 77 % 0 mm
16:04 21.3 °C 16.7 °C 1018.8 hPa Calm   5.6 km/h 75 % 0 mm
16:09 21.3 °C 17.1 °C 1018.8 hPa NE 0.2 km/h 3.7 km/h 77 % 0 mm
16:14 21.3 °C 16.9 °C 1019.2 hPa Calm     76 % 0 mm
16:19 21.3 °C 17.1 °C 1019.2 hPa Calm   1.9 km/h 77 % 0 mm
16:24 21.3 °C 16.9 °C 1019.2 hPa ENE 2.4 km/h 3.7 km/h 76 % 0 mm
16:29 21.2 °C 17 °C 1019.2 hPa Calm     77 % 0 mm
16:34 21.3 °C 17.3 °C 1019.2 hPa Calm   1.9 km/h 78 % 0 mm
16:39 21.2 °C 17 °C 1019.2 hPa Calm     77 % 0 mm
16:45 21.2 °C 17 °C 1019.2 hPa NE 1.4 km/h 3.7 km/h 77 % 0 mm
16:50 21.2 °C 16.8 °C 1019.2 hPa Calm   1.9 km/h 76 % 0 mm
16:55 21.2 °C 17 °C 1019.2 hPa ENE 2.6 km/h 5.6 km/h 77 % 0 mm
17:00 21.2 °C 16.8 °C 1019.2 hPa NE 0.8 km/h 3.7 km/h 76 % 0 mm
17:05 21.2 °C 16.6 °C 1019.2 hPa ENE 0.8 km/h 3.7 km/h 75 % 0 mm
17:10 21.1 °C 16.7 °C 1019.2 hPa Calm   1.6 km/h 76 % 0 mm
17:15 21 °C 16.6 °C 1019.2 hPa Calm   1.9 km/h 76 % 0 mm
17:20 20.9 °C 16.6 °C 1019.2 hPa Calm     76 % 0 mm
17:25 20.8 °C 16.8 °C 1019.2 hPa Calm     78 % 0 mm
17:30 20.8 °C 16.6 °C 1019.2 hPa Calm   1.9 km/h 77 % 0 mm
17:35 20.7 °C 16.7 °C 1019.2 hPa Calm     78 % 0 mm
17:40 20.6 °C 16.6 °C 1019.2 hPa Calm   1.6 km/h 78 % 0 mm
17:45 20.6 °C 16.6 °C 1019.2 hPa Calm     78 % 0 mm
17:50 20.5 °C 16.7 °C 1019.2 hPa Calm     79 % 0 mm
17:55 20.4 °C 16.5 °C 1019.2 hPa Calm     78 % 0 mm
18:00 20.4 °C 16.6 °C 1019.2 hPa Calm   1.9 km/h 79 % 0 mm
18:05 20.3 °C 16.6 °C 1019.2 hPa ENE 1.4 km/h 1.6 km/h 79 % 0 mm
18:10 20.3 °C 16.7 °C 1019.2 hPa ENE 0.3 km/h 1.9 km/h 80 % 0 mm
18:15 20.2 °C 16.3 °C 1019.5 hPa Calm   1.9 km/h 78 % 0 mm
18:17 20.2 °C 16.3 °C 1019.5 hPa ENE 0.2 km/h 1.9 km/h 78 % 0 mm
18:22 20.2 °C 16.6 °C 1019.5 hPa Calm   1.9 km/h 80 % 0 mm
18:27 20.1 °C 16.3 °C 1019.5 hPa Calm     79 % 0 mm
18:32 20.1 °C 16.6 °C 1019.5 hPa Calm     80 % 0 mm
18:37 20.1 °C 16.6 °C 1019.5 hPa Calm   1.9 km/h 80 % 0 mm
18:42 20.1 °C 16.3 °C 1019.5 hPa Calm   1.9 km/h 79 % 0 mm
18:47 20.1 °C 16.5 °C 1019.5 hPa NNE 0.6 km/h 3.2 km/h 80 % 0 mm
18:52 20.1 °C 16.5 °C 1019.5 hPa NNE 1.9 km/h 3.2 km/h 80 % 0 mm
18:57 20.1 °C 16.5 °C 1019.9 hPa Calm   1.9 km/h 80 % 0 mm
19:02 20.1 °C 16.7 °C 1019.9 hPa NNE 0.6 km/h 3.7 km/h 81 % 0 mm
19:05 20.1 °C 16.5 °C 1019.9 hPa NNE 0.2 km/h 3.2 km/h 80 % 0 mm
19:10 20 °C 16.6 °C 1019.9 hPa NNE 0.2 km/h 1.9 km/h 81 % 0 mm
19:15 20 °C 16.4 °C 1019.9 hPa NNE 1.9 km/h 5.6 km/h 80 % 0 mm
19:20 19.9 °C 16.4 °C 1019.9 hPa NNE 2.4 km/h 5.6 km/h 80 % 0 mm
19:25 19.9 °C 16.6 °C 1019.9 hPa North 3.5 km/h 5.6 km/h 81 % 0 mm
19:30 19.9 °C 16.3 °C 1020.2 hPa Calm     80 % 0 mm
19:35 19.8 °C 16.3 °C 1020.2 hPa Calm     80 % 0 mm
19:41 19.8 °C 16.5 °C 1020.2 hPa Calm   3.2 km/h 81 % 0 mm
19:46 19.8 °C 16.2 °C 1020.2 hPa WNW 1.6 km/h 4.8 km/h 80 % 0 mm
19:51 19.7 °C 16.4 °C 1020.2 hPa Calm   4.8 km/h 81 % 0 mm
19:56 19.7 °C 16.3 °C 1020.2 hPa Calm   3.2 km/h 81 % 0 mm
20:01 19.6 °C 16.3 °C 1020.5 hPa Calm     81 % 0 mm
20:06 19.6 °C 16.3 °C 1020.5 hPa Calm     81 % 0 mm
20:11 19.6 °C 16.4 °C 1020.5 hPa Calm   3.7 km/h 82 % 0 mm
20:16 19.5 °C 16.3 °C 1020.2 hPa WNW 1.6 km/h 3.7 km/h 82 % 0 mm
20:21 19.4 °C 16.3 °C 1020.2 hPa Calm   1.9 km/h 82 % 0 mm
20:26 19.4 °C 16.2 °C 1020.2 hPa Calm   1.9 km/h 82 % 0 mm
20:31 19.3 °C 16.2 °C 1020.5 hPa WNW 0.3 km/h 1.9 km/h 82 % 0 mm
20:36 19.3 °C 16.4 °C 1020.5 hPa WNW 0.5 km/h 1.9 km/h 83 % 0 mm
20:41 19.3 °C 16.3 °C 1020.5 hPa Calm     83 % 0 mm
20:46 19.3 °C 16.3 °C 1020.5 hPa Calm     83 % 0 mm
20:51 19.2 °C 16.3 °C 1020.5 hPa WNW 0.5 km/h 1.9 km/h 83 % 0 mm
20:56 19.2 °C 16.3 °C 1020.5 hPa Calm   1.9 km/h 83 % 0 mm
21:01 19.2 °C 16.2 °C 1020.5 hPa Calm     83 % 0 mm
21:06 19.2 °C 16.2 °C 1020.9 hPa Calm     83 % 0 mm
21:11 19.2 °C 16.4 °C 1020.9 hPa North 3.7 km/h 5.6 km/h 84 % 0 mm
21:17 19.2 °C 16.4 °C 1020.9 hPa North 1.1 km/h 3.2 km/h 84 % 0 mm
21:22 19.1 °C 16.2 °C 1020.9 hPa NNE 3.4 km/h 7.4 km/h 83 % 0 mm
21:27 19.1 °C 16.2 °C 1020.9 hPa NNE 1.8 km/h 7.4 km/h 83 % 0 mm
21:32 19.2 °C 16.6 °C 1020.9 hPa Calm     85 % 0 mm
21:37 19.2 °C 16.8 °C 1021.2 hPa Calm   1.9 km/h 86 % 0 mm
21:42 19.2 °C 16.6 °C 1021.2 hPa NNE 0.2 km/h 1.9 km/h 85 % 0 mm
21:47 19.2 °C 16.6 °C 1021.2 hPa NNE 0.3 km/h 1.9 km/h 85 % 0 mm
21:52 19.2 °C 16.6 °C 1021.2 hPa Calm   1.9 km/h 85 % 0 mm
21:57 19.2 °C 16.6 °C 1021.2 hPa Calm   1.9 km/h 85 % 0 mm
22:02 19.2 °C 16.6 °C 1021.2 hPa Calm     85 % 0 mm
22:07 19.2 °C 16.8 °C 1021.2 hPa Calm     86 % 0 mm
22:12 19.1 °C 16.7 °C 1021.2 hPa Calm     86 % 0 mm
22:17 19.1 °C 16.7 °C 1021.6 hPa Calm     86 % 0 mm
22:22 19.1 °C 16.7 °C 1021.6 hPa Calm     86 % 0 mm
22:27 19 °C 16.4 °C 1021.6 hPa Calm     85 % 0 mm
22:32 19 °C 16.4 °C 1021.6 hPa NNE 0.2 km/h 1.9 km/h 85 % 0 mm
22:37 19 °C 16.4 °C 1021.6 hPa NNE 0.5 km/h 1.6 km/h 85 % 0 mm
22:42 18.9 °C 16.4 °C 1021.6 hPa Calm     85 % 0 mm
22:47 18.9 °C 16.6 °C 1021.6 hPa Calm     86 % 0 mm
22:52 18.9 °C 16.6 °C 1021.6 hPa NE 0.2 km/h 1.9 km/h 86 % 0 mm
22:57 18.9 °C 16.5 °C 1021.6 hPa Calm   1.9 km/h 86 % 0 mm
23:02 18.8 °C 16.4 °C 1021.6 hPa Calm     86 % 0 mm
23:07 18.8 °C 16.4 °C 1021.6 hPa Calm     86 % 0 mm
23:13 18.8 °C 16.4 °C 1021.6 hPa Calm     86 % 0 mm
23:18 18.8 °C 16.4 °C 1021.6 hPa ENE 0.2 km/h 1.9 km/h 86 % 0 mm
23:23 18.8 °C 16.4 °C 1021.9 hPa Calm     86 % 0 mm
23:28 18.8 °C 16.6 °C 1021.9 hPa Calm     87 % 0 mm
23:33 18.8 °C 16.6 °C 1021.9 hPa SSE 0.5 km/h 3.7 km/h 87 % 0 mm
23:38 18.8 °C 16.6 °C 1021.9 hPa Calm   3.7 km/h 87 % 0 mm
23:43 18.7 °C 16.5 °C 1021.6 hPa SE 0.5 km/h 3.7 km/h 87 % 0 mm
23:48 18.7 °C 16.5 °C 1021.9 hPa SE 0.2 km/h 1.9 km/h 87 % 0 mm
23:53 18.7 °C 16.4 °C 1021.6 hPa ENE 0.3 km/h 3.2 km/h 87 % 0 mm
23:58 18.7 °C 16.1 °C 1021.6 hPa ENE 0.6 km/h 1.9 km/h 85 % 0 mm
Crab Meadow Weather
Compliments of Weather Underground - 3 mb

Script developed by  Jim McMurry - jmcmurry@mwt.net Adapted for the template by  Wim van der Kuil - Leuven-Template.eu

Astronomy: Earth is 93 million miles away from the Sun.